CW7368 Weather Reports


Display with metric or nautical units.
time (UTC)temp
F
wind
direction
speed
MPH
gust
MPH
rain 1hr
in
rain 24hr
in
rain mn
in
humidity
%
barometer
mb
20170623052857 45 234 5.0 10.0 0.00 0.00 0.00 94 1006.3
20170623051857 45 246 5.0 12.0 0.00 0.00 0.00 94 1006.4
20170623050856 45 230 4.0 13.0 0.00 0.00 0.00 94 1006.4
20170623045857 45 238 3.0 9.0 0.00 0.00 0.00 94 1006.6
20170623044857 45 261 4.0 10.0 0.00 0.00 0.00 94 1006.9
20170623043857 45 239 2.0 12.0 0.00 0.00 0.00 94 1007.1
20170623042857 45 244 5.0 13.0 0.00 0.00 0.00 94 1007.2
20170623041856 45 238 3.0 12.0 0.00 0.00 0.00 94 1007.3
20170623040857 45 244 2.0 13.0 0.00 0.00 0.00 94 1007.5
20170623035857 45 241 5.0 10.0 0.00 0.00 0.00 94 1007.7
20170623034856 45 222 5.0 12.0 0.00 0.00 0.00 94 1007.8
20170623033857 45 232 1.0 14.0 0.00 0.00 0.00 94 1008.0
20170623032857 45 228 3.0 12.0 0.00 0.00 0.00 94 1008.3
20170623031856 45 233 5.0 10.0 0.00 0.00 0.00 94 1008.5
20170623030857 45 248 3.0 12.0 0.00 0.00 0.00 94 1008.6
20170623025856 46 239 2.0 8.0 0.00 0.00 0.00 94 1008.8
20170623024857 46 236 3.0 12.0 0.00 0.00 0.00 94 1008.9
20170623023857 46 239 2.0 9.0 0.00 0.00 0.00 94 1009.1
20170623022857 46 240 3.0 12.0 0.00 0.00 0.00 94 1009.2
20170623021857 45 240 3.0 9.0 0.00 0.00 0.00 94 1009.5
20170623020858 45 241 3.0 9.0 0.00 0.00 0.00 94 1009.7
20170623015857 45 231 3.0 8.0 0.00 0.00 0.00 94 1010.1
20170623014857 45 228 2.0 7.0 0.00 0.00 0.00 94 1010.3
20170623013857 45 216 2.0 8.0 0.00 0.00 0.00 94 1010.5
20170623012856 45 210 3.0 10.0 0.00 0.00 0.00 94 1010.8
20170623011857 45 235 2.0 5.0 0.00 0.00 0.00 94 1011.1
20170623010856 45 240 3.0 12.0 0.00 0.00 0.00 94 1011.3
20170623005856 45 242 2.0 7.0 0.00 0.00 0.00 94 1011.6
20170623004856 45 207 1.0 9.0 0.00 0.00 0.00 94 1011.8
20170623003856 45 240 3.0 9.0 0.00 0.00 0.00 94 1012.0
20170623002857 45 241 2.0 8.0 0.00 0.00 0.00 94 1012.2
20170623001857 45 225 3.0 8.0 0.00 0.00 0.00 94 1012.4
20170623000857 45 238 2.0 10.0 0.00 0.00 0.00 94 1012.7
20170622235856 45 245 2.0 8.0 0.00 0.00 0.00 94 1013.0
20170622234857 45 234 3.0 5.0 0.00 0.00 0.00 94 1013.3
20170622233856 45 239 2.0 8.0 0.00 0.00 0.00 94 1013.6
20170622232857 45 227 2.0 8.0 0.00 0.00 0.00 94 1013.8
20170622231857 45 234 3.0 7.0 0.00 0.00 0.00 94 1014.1
20170622230857 45 234 1.0 5.0 0.00 0.00 0.00 94 1014.3
20170622225856 44 216 2.0 6.0 0.00 0.00 0.00 94 1014.4
20170622224856 44 243 3.0 8.0 0.00 0.00 0.00 94 1014.6
20170622223856 44 225 2.0 7.0 0.00 0.00 0.00 94 1014.9
20170622222857 44 242 2.0 8.0 0.00 0.00 0.00 94 1015.1
20170622221856 44 232 1.0 5.0 0.00 0.00 0.00 94 1015.2
20170622220857 44 238 2.0 6.0 0.00 0.00 0.00 94 1015.3
20170622215856 44 229 1.0 7.0 0.00 0.00 0.00 93 1015.4
20170622214856 44 249 3.0 8.0 0.00 0.00 0.00 93 1015.6
20170622213856 44 243 2.0 8.0 0.00 0.00 0.00 93 1015.7
20170622212857 44 234 0.0 5.0 0.00 0.00 0.00 93 1015.8
20170622211857 44 236 1.0 5.0 0.00 0.00 0.00 93 1015.9
20170622210856 44 232 2.0 5.0 0.00 0.00 0.00 93 1015.9
20170622205857 44 229 2.0 7.0 0.00 0.00 0.00 93 1016.1
20170622204857 44 240 2.0 6.0 0.00 0.00 0.00 93 1016.2
20170622203857 44 249 2.0 5.0 0.00 0.00 0.00 93 1016.3
20170622202857 44 251 1.0 3.0 0.00 0.00 0.00 93 1016.4
20170622201856 44 251 1.0 3.0 0.00 0.00 0.00 93 1016.5
20170622200858 44 251 1.0 9.0 0.00 0.00 0.00 93 1016.7